sat.trackr.live / text

‹ back to catalog

QIANFAN-6

NORAD 60384 · 2024-140F

PAYLOAD ACTIVE UNKNOWN

§ Identity

Operator
Country
PRC
Launch date
2024-08-06
Launch site
TAISC
Launch vehicle
Mass (kg)
RCS (m²)

External: N2YO · Heavens-Above · Gunter

§ Orbital elements

Epoch: 2026-09-22T21:07:40.853280Z

Period
106.59 min
Inclination
88.9670°
Eccentricity
0.0015273
Mean motion
13.51024190 rev/d
Perigee alt
1,057.1 km
Apogee alt
1,079.9 km
Semi-major
7,446.6 km
B*
2.4781e-5
RAAN
269.5368°
Arg perigee
94.5055°
Mean anomaly
265.7841°
Rev number
10,586

§ Raw data

QIANFAN-61 60384U 24140F   26265.88033395  .00000028  00000+0  24781-4 0  99972 60384  88.9670 269.5368 0015273  94.5055 265.7841 13.51024190105865

JSON: /api/v1/satellites/60384 · /tle

For live sub-satellite position, see the globe view (requires WebGL).

§ Visibility from observer

Set your observer location to see the next 7 days of passes ≥ 10°. The values pass through the URL so the page stays shareable.

No JS? Fill the form by hand. The geolocation button needs JavaScript.